Regional Weather Roundup
Issued by NWS Cleveland, OH

Home | Current Version | Previous Version | Graphics & Text | Print | Product List | Glossary On
Versions: 1 2 3 4 5 6 7 8 9 10 11 12 13 14 15 16 17 18 19 20 21 22 23 24 25 26 27 28 29 30 31 32 33 34 35 36 37 38 39 40 41 42 43 44 45 46 47 48 49 50
000
ASUS41 KCLE 300600
RWRCLE
OHIO REGIONAL WEATHER ROUNDUP
NATIONAL WEATHER SERVICE WILMINGTON, OH
200 AM EDT THU MAR 30 2017

NOTE: "FAIR" INDICATES FEW OR NO CLOUDS BELOW 12,000 FEET WITH NO
SIGNIFICANT WEATHER AND/OR OBSTRUCTIONS TO VISIBILITY.

OHZ001>008-015>018-024>027-034-035-043-044-300700-
   NORTHWEST OHIO

CITY           SKY/WX    TMP DP  RH WIND       PRES   REMARKS
DEFIANCE       CLOUDY    46  32  58 E10       30.09F
FINDLAY        CLOUDY    47  31  53 NE15      30.07F
TOLEDO EXPRESS CLOUDY    43  33  68 E13       30.11F
TOLEDO EXEC    CLOUDY    43  36  76 NE12      30.14F
LIMA           CLOUDY    46  34  62 NE14      30.04F
$$

OHZ009>014-019>023-028>033-038-089-300700-
   NORTHEAST OHIO

CITY           SKY/WX    TMP DP  RH WIND       PRES   REMARKS
CLE-HOPKINS    CLOUDY    46  33  60 NE5       30.16F
CLE-LAKEFRONT  FAIR      42  37  82 NE8       30.14F
CUY CO. ARPT   NOT AVBL
LORAIN-ELYRIA  CLOUDY    43  33  68 NE8       30.13F
ASHTABULA      CLOUDY    44  31  60 E7        30.17F
AKRON-CANTON   MOCLDY    45  30  55 NE8       30.13R
WOOSTER        NOT AVBL
MANSFIELD      MOCLDY    44  32  62 NE14      30.07F
YOUNGSTOWN     MOCLDY    44  28  53 NE8       30.15S
$$

OHZ042-051>053-060>062-070>072-077>081-300700-
  SOUTHWEST OHIO

CITY           SKY/WX    TMP DP  RH WIND       PRES   REMARKS
CINC-COVINGTON CLOUDY    53  44  71 SE14      29.95F
CINC-LUNKEN    FAIR      54  44  69 CALM      29.97F
HAMILTON       FAIR      50  44  80 E5        29.98F
DAYTON         NOT AVBL
WRIGHT-PAT AFB MOCLDY    51  36  56 E8        29.99F
DAYTON GENERAL FAIR      51  42  71 E6        29.97F
WILMINGTON     FAIR      48  42  80 E5        29.99F
$$

OHZ036-037-039>041-045>050-054>059-063>069-073>076-082>088-300700-
  CENTRAL AND SOUTHEAST OHIO

CITY           SKY/WX    TMP DP  RH WIND       PRES   REMARKS
COLUMBUS       CLOUDY    51  34  52 E9        30.04F
OSU AIRPORT    FAIR      48  37  65 NE7       30.04F
BOLTON FIELD   NOT AVBL
RICKENBACK AFB NOT AVBL
NEWARK         MOCLDY    49  33  54 E10       30.04F
MARION         CLOUDY    46  34  62 E9        30.06F
LANCASTER      FAIR      50  36  58 E5        30.04F
ZANESVILLE     FAIR      48  32  53 NE5       30.07S
NEW PHILLY     MOCLDY    46  33  60 CALM      30.11R
$$




USA.gov is the U.S. government's official web portal to all federal, state and local government web resources and services.